"Period start","avg(HW err(1)/warn(2) (#))","avg(Visibility (m))","avg(Weather code (#))","avg(Precip intensity (mm/h))","min(HW err(1)/warn(2) (#))","max(HW err(1)/warn(2) (#))","std(HW err(1)/warn(2) (#))","med(HW err(1)/warn(2) (#))","min(Visibility (m))","max(Visibility (m))","std(Visibility (m))","med(Visibility (m))","min(Weather code (#))","max(Weather code (#))","std(Weather code (#))","med(Weather code (#))","min(Precip intensity (mm/h))","max(Precip intensity (mm/h))","std(Precip intensity (mm/h))","med(Precip intensity (mm/h))"
2014-05-05 00:00:00,2,10055,10,0.00,2,2,0,2,8038,13159,1321,10124,10,10,0,10,0.00,0.00,0.00,0.00
2014-05-05 00:10:00,2,8143,22,0.17,2,2,0,2,4980,11828,1954,8193,10,41,15,10,0.00,0.95,0.29,0.00
2014-05-05 00:20:00,2,8597,35,0.21,2,2,0,2,6697,10624,1362,7982,10,41,12,41,0.00,0.50,0.20,0.23
2014-05-05 00:30:00,2,12141,21,0.04,2,2,0,2,10224,14087,1213,11940,0,41,16,10,0.00,0.20,0.08,0.00
2014-05-05 00:40:00,2,12380,0,0.00,2,2,0,2,10854,14815,1280,12175,0,0,0,0,0.00,0.00,0.00,0.00
2014-05-05 00:50:00,2,13738,0,0.00,2,2,0,2,10745,17645,1992,13539,0,0,0,0,0.00,0.00,0.00,0.00
2014-05-05 01:00:00,2,13848,0,0.00,2,2,0,2,11668,16364,1584,13812,0,0,0,0,0.00,0.00,0.00,0.00
2014-05-05 01:10:00,2,13771,0,0.00,2,2,0,2,11272,16378,1506,13601,0,0,0,0,0.00,0.00,0.00,0.00
2014-05-05 01:20:00,2,12187,0,0.00,2,2,0,2,10972,14290,887,11951,0,0,0,0,0.00,0.00,0.00,0.00
2014-05-05 01:30:00,2,10219,12,0.07,2,2,0,2,8453,12195,1325,9828,0,41,19,0,0.00,0.40,0.13,0.00
2014-05-05 01:40:00,2,6298,60,0.52,2,2,0,2,4775,8031,917,6212,41,74,15,71,0.30,0.70,0.13,0.55
2014-05-05 01:50:00,2,4982,71,1.01,2,2,0,2,3006,7248,1104,5134,71,71,0,71,0.45,2.15,0.52,0.88
2014-05-05 02:00:00,2,2636,71,2.66,2,2,0,2,2333,3016,268,2560,71,71,0,71,1.90,3.70,0.63,2.42
2014-05-05 02:10:00,2,1567,71,5.44,2,2,0,2,887,2936,697,1258,71,71,0,71,1.50,9.60,2.40,5.42
2014-05-05 02:20:00,2,1054,71,7.41,2,2,0,2,958,1168,63,1046,71,72,0,71,6.30,8.90,0.83,7.32
2014-05-05 02:30:00,2,1280,71,7.61,2,2,0,2,1057,1490,131,1238,71,71,0,71,6.00,10.45,1.26,7.17
2014-05-05 02:40:00,2,1066,71,10.21,2,2,0,2,910,1464,156,1074,71,71,0,71,6.90,13.65,1.91,10.30
2014-05-05 02:50:00,2,2124,71,3.08,2,2,0,2,1405,2913,376,2068,71,71,0,71,1.30,3.85,0.72,3.35
2014-05-05 03:00:00,2,1512,71,5.10,2,2,0,2,1191,2024,267,1431,71,71,0,71,3.45,7.20,1.24,4.80
2014-05-05 03:10:00,2,1224,71,6.21,2,2,0,2,1000,1396,119,1212,71,71,0,71,4.55,8.05,1.12,6.12
2014-05-05 03:20:00,2,836,72,10.86,2,2,0,2,668,1131,149,793,71,72,0,72,7.60,14.75,2.99,9.70
2014-05-05 03:30:00,2,738,72,13.24,2,2,0,2,641,834,71,766,72,72,0,72,9.55,15.95,2.01,13.38
2014-05-05 03:40:00,2,788,72,13.44,2,2,0,2,611,957,97,774,72,72,0,72,10.65,15.70,1.54,13.38
2014-05-05 03:50:00,2,756,72,12.96,2,2,0,2,688,877,60,730,71,72,0,72,11.15,15.10,1.22,12.93
2014-05-05 04:00:00,2,847,72,12.40,2,2,0,2,623,1072,126,842,71,72,0,72,8.60,19.15,3.61,10.80
2014-05-05 04:10:00,2,1133,71,7.27,2,2,0,2,1014,1375,112,1088,71,71,0,71,4.25,9.40,1.38,7.32
2014-05-05 04:20:00,2,1312,71,6.75,2,2,0,2,1082,1508,121,1327,71,71,0,71,5.40,8.40,0.95,6.70
2014-05-05 04:30:00,2,1166,71,9.25,2,2,0,2,880,1451,173,1210,71,71,0,71,6.05,14.75,2.71,8.18
2014-05-05 04:40:00,2,862,72,13.49,2,2,0,2,758,987,68,852,71,72,0,72,10.95,15.40,1.61,13.95
2014-05-05 04:50:00,2,1166,71,7.55,2,2,0,2,1020,1411,112,1148,71,72,0,71,6.50,10.80,1.17,7.30
2014-05-05 05:00:00,2,2061,71,1.27,2,2,0,2,1584,2648,293,2126,71,71,0,71,0.50,4.20,1.05,0.93
2014-05-05 05:10:00,2,4086,71,0.39,2,2,0,2,2667,6464,1221,3612,71,71,0,71,0.05,1.35,0.36,0.23
2014-05-05 05:20:00,2,4163,71,0.40,2,2,0,2,1900,5826,1508,4348,71,71,0,71,0.10,1.15,0.35,0.23
2014-05-05 05:30:00,2,2452,71,0.40,2,2,0,2,1916,3150,364,2542,71,71,0,71,0.20,0.75,0.19,0.30
2014-05-05 05:40:00,2,5153,67,0.10,2,2,0,2,3025,11449,2466,4320,10,77,19,71,0.00,0.20,0.07,0.10
2014-05-05 05:50:00,2,12388,10,0.00,2,2,0,2,9660,16049,1957,11763,10,10,0,10,0.00,0.00,0.00,0.00
2014-05-05 06:00:00,2,12042,0,0.00,2,2,0,2,7557,17619,3054,11092,0,0,0,0,0.00,0.00,0.00,0.00
2014-05-05 06:10:00,2,17130,0,0.00,2,2,0,2,10537,33609,7222,14846,0,0,0,0,0.00,0.00,0.00,0.00
2014-05-05 06:20:00,2,18625,0,0.00,2,2,0,2,12057,27730,4219,17376,0,0,0,0,0.00,0.00,0.00,0.00
2014-05-05 06:30:00,2,27331,0,0.00,2,2,0,2,17095,47104,10345,23480,0,0,0,0,0.00,0.00,0.00,0.00
2014-05-05 06:40:00,2,22203,0,0.00,2,2,0,2,9955,31729,7196,23784,0,0,0,0,0.00,0.00,0.00,0.00
2014-05-05 06:50:00,2,15305,0,0.00,2,2,0,2,10360,21988,3699,15518,0,0,0,0,0.00,0.00,0.00,0.00
2014-05-05 07:00:00,2,14598,0,0.00,2,2,0,2,10642,25754,4026,13499,0,0,0,0,0.00,0.00,0.00,0.00
2014-05-05 07:10:00,2,12613,0,0.00,2,2,0,2,9561,19930,2890,11546,0,0,0,0,0.00,0.00,0.00,0.00
2014-05-05 07:20:00,2,13951,0,0.00,2,2,0,2,9777,18759,2294,13607,0,0,0,0,0.00,0.00,0.00,0.00
2014-05-05 07:30:00,2,16126,4,0.01,2,2,0,2,10522,21481,3175,16316,0,40,12,0,0.00,0.15,0.05,0.00
2014-05-05 07:40:00,2,6216,56,0.31,2,2,0,2,4860,8828,1195,6164,10,71,25,71,0.00,0.65,0.27,0.30
2014-05-05 07:50:00,2,8271,10,0.00,2,2,0,2,5624,11835,1565,8162,10,10,0,10,0.00,0.00,0.00,0.00
2014-05-05 08:00:00,2,13845,7,0.00,2,2,0,2,11319,16471,1471,14116,0,10,5,10,0.00,0.00,0.00,0.00
2014-05-05 08:10:00,2,14455,0,0.00,2,2,0,2,11448,16762,1673,14890,0,0,0,0,0.00,0.00,0.00,0.00
2014-05-05 08:20:00,2,15385,0,0.00,2,2,0,2,12887,17839,1560,15632,0,0,0,0,0.00,0.00,0.00,0.00
2014-05-05 08:30:00,2,14599,0,0.00,2,2,0,2,10754,19745,2495,14894,0,0,0,0,0.00,0.00,0.00,0.00
2014-05-05 08:40:00,2,14890,0,0.00,2,2,0,2,12490,19079,2496,13472,0,0,0,0,0.00,0.00,0.00,0.00
2014-05-05 08:50:00,2,15787,0,0.00,2,2,0,2,13006,20318,1822,15276,0,0,0,0,0.00,0.00,0.00,0.00
2014-05-05 09:00:00,2,14311,0,0.00,2,2,0,2,11866,16882,1433,14402,0,0,0,0,0.00,0.00,0.00,0.00
2014-05-05 09:10:00,2,14081,0,0.00,2,2,0,2,12038,16717,1609,13706,0,0,0,0,0.00,0.00,0.00,0.00
2014-05-05 09:20:00,2,11805,0,0.00,2,2,0,2,8843,17550,2372,11812,0,0,0,0,0.00,0.00,0.00,0.00
2014-05-05 09:30:00,2,11869,0,0.00,2,2,0,2,9584,15536,1981,11666,0,0,0,0,0.00,0.00,0.00,0.00
2014-05-05 09:40:00,2,13335,0,0.00,2,2,0,2,10892,15284,1492,13554,0,0,0,0,0.00,0.00,0.00,0.00
2014-05-05 09:50:00,2,14421,0,0.00,2,2,0,2,11949,18439,1971,13734,0,0,0,0,0.00,0.00,0.00,0.00
2014-05-05 10:00:00,2,13276,0,0.00,2,2,0,2,10493,15622,1508,13342,0,0,0,0,0.00,0.00,0.00,0.00
2014-05-05 10:10:00,2,13528,0,0.00,2,2,0,2,12365,15570,906,13197,0,0,0,0,0.00,0.00,0.00,0.00
2014-05-05 10:20:00,2,13224,0,0.00,2,2,0,2,11816,15902,1150,13144,0,0,0,0,0.00,0.00,0.00,0.00
2014-05-05 10:30:00,2,14094,0,0.00,2,2,0,2,11775,17010,1398,14028,0,0,0,0,0.00,0.00,0.00,0.00
2014-05-05 10:40:00,2,14342,0,0.00,2,2,0,2,12313,16540,1520,14348,0,0,0,0,0.00,0.00,0.00,0.00
2014-05-05 10:50:00,2,15180,0,0.00,2,2,0,2,13387,16678,1213,15458,0,0,0,0,0.00,0.00,0.00,0.00
2014-05-05 11:00:00,2,13621,0,0.00,2,2,0,2,11970,15745,1166,13324,0,0,0,0,0.00,0.00,0.00,0.00
2014-05-05 11:10:00,2,12593,0,0.00,2,2,0,2,11735,13161,437,12657,0,0,0,0,0.00,0.00,0.00,0.00
2014-05-05 11:20:00,2,12743,0,0.00,2,2,0,2,11772,13462,422,12823,0,0,0,0,0.00,0.00,0.00,0.00
2014-05-05 11:30:00,2,12978,0,0.00,2,2,0,2,11668,14682,813,13011,0,0,0,0,0.00,0.00,0.00,0.00
2014-05-05 11:40:00,2,12997,0,0.00,2,2,0,2,11359,14724,1033,13016,0,0,0,0,0.00,0.00,0.00,0.00
2014-05-05 11:50:00,2,12687,0,0.00,2,2,0,2,10943,13891,848,12597,0,0,0,0,0.00,0.00,0.00,0.00
2014-05-05 12:00:00,2,12490,0,0.00,2,2,0,2,11385,13692,650,12517,0,0,0,0,0.00,0.00,0.00,0.00
2014-05-05 12:10:00,2,12064,0,0.00,2,2,0,2,11701,12404,234,12158,0,0,0,0,0.00,0.00,0.00,0.00
2014-05-05 12:20:00,2,11124,0,0.00,2,2,0,2,9886,11745,493,11134,0,0,0,0,0.00,0.00,0.00,0.00
2014-05-05 12:30:00,2,11915,0,0.00,2,2,0,2,10866,12713,629,11994,0,0,0,0,0.00,0.00,0.00,0.00
2014-05-05 12:40:00,2,12672,0,0.00,2,2,0,2,12021,13560,501,12612,0,0,0,0,0.00,0.00,0.00,0.00
2014-05-05 12:50:00,2,13175,0,0.00,2,2,0,2,12560,13842,424,13146,0,0,0,0,0.00,0.00,0.00,0.00
2014-05-05 13:00:00,2,12894,0,0.00,2,2,0,2,12064,13810,588,12808,0,0,0,0,0.00,0.00,0.00,0.00
2014-05-05 13:10:00,2,13553,0,0.00,2,2,0,2,12992,14735,552,13344,0,0,0,0,0.00,0.00,0.00,0.00
2014-05-05 13:20:00,2,14158,0,0.00,2,2,0,2,13523,15415,536,14117,0,0,0,0,0.00,0.00,0.00,0.00
2014-05-05 13:30:00,2,13770,0,0.00,2,2,0,2,12863,14890,626,13982,0,0,0,0,0.00,0.00,0.00,0.00
2014-05-05 13:40:00,2,12682,0,0.00,2,2,0,2,11885,13833,579,12618,0,0,0,0,0.00,0.00,0.00,0.00
2014-05-05 13:50:00,2,12996,0,0.00,2,2,0,2,12367,13912,439,13002,0,0,0,0,0.00,0.00,0.00,0.00
2014-05-05 14:00:00,2,12297,0,0.00,2,2,0,2,11776,13198,382,12266,0,0,0,0,0.00,0.00,0.00,0.00
2014-05-05 14:10:00,2,12209,0,0.00,2,2,0,2,11514,12828,405,12222,0,0,0,0,0.00,0.00,0.00,0.00
2014-05-05 14:20:00,2,12108,0,0.00,2,2,0,2,11290,12654,407,12062,0,0,0,0,0.00,0.00,0.00,0.00
2014-05-05 14:30:00,2,11502,0,0.00,2,2,0,2,10646,12285,489,11530,0,0,0,0,0.00,0.00,0.00,0.00
2014-05-05 14:40:00,2,11414,0,0.00,2,2,0,2,11017,11812,276,11434,0,0,0,0,0.00,0.00,0.00,0.00
2014-05-05 14:50:00,2,10830,0,0.00,2,2,0,2,10487,11102,179,10876,0,0,0,0,0.00,0.00,0.00,0.00
2014-05-05 15:00:00,2,10678,0,0.00,2,2,0,2,9884,11104,314,10713,0,0,0,0,0.00,0.00,0.00,0.00
2014-05-05 15:10:00,2,10739,0,0.00,2,2,0,2,10168,11016,264,10824,0,0,0,0,0.00,0.00,0.00,0.00
2014-05-05 15:20:00,2,10490,0,0.00,2,2,0,2,9404,11135,455,10480,0,0,0,0,0.00,0.00,0.00,0.00
2014-05-05 15:30:00,2,10244,0,0.00,2,2,0,2,9977,10460,138,10238,0,0,0,0,0.00,0.00,0.00,0.00
2014-05-05 15:40:00,2,10246,0,0.00,2,2,0,2,9843,10847,268,10208,0,0,0,0,0.00,0.00,0.00,0.00
2014-05-05 15:50:00,2,10136,0,0.00,2,2,0,2,9694,10445,204,10162,0,0,0,0,0.00,0.00,0.00,0.00
2014-05-05 16:00:00,2,10698,0,0.00,2,2,0,2,10118,11281,316,10662,0,0,0,0,0.00,0.00,0.00,0.00
2014-05-05 16:10:00,2,10945,0,0.00,2,2,0,2,10275,11393,329,10989,0,0,0,0,0.00,0.00,0.00,0.00
2014-05-05 16:20:00,2,11136,0,0.00,2,2,0,2,10794,11485,214,11136,0,0,0,0,0.00,0.00,0.00,0.00
2014-05-05 16:30:00,2,10480,0,0.00,2,2,0,2,10022,11012,262,10534,0,0,0,0,0.00,0.00,0.00,0.00
2014-05-05 16:40:00,2,10318,0,0.00,2,2,0,2,9843,10621,244,10354,0,0,0,0,0.00,0.00,0.00,0.00
2014-05-05 16:50:00,2,10230,0,0.00,2,2,0,2,9686,10849,356,10232,0,0,0,0,0.00,0.00,0.00,0.00
2014-05-05 17:00:00,2,9879,0,0.00,2,2,0,2,9188,10579,400,9855,0,0,0,0,0.00,0.00,0.00,0.00
2014-05-05 17:10:00,2,9834,0,0.00,2,2,0,2,9405,10452,299,9824,0,0,0,0,0.00,0.00,0.00,0.00
2014-05-05 17:20:00,2,9809,0,0.00,2,2,0,2,9436,10269,286,9820,0,0,0,0,0.00,0.00,0.00,0.00
2014-05-05 17:30:00,2,10351,0,0.00,2,2,0,2,9945,10774,277,10346,0,0,0,0,0.00,0.00,0.00,0.00
2014-05-05 17:40:00,2,9994,0,0.00,2,2,0,2,9468,10555,327,10040,0,0,0,0,0.00,0.00,0.00,0.00
2014-05-05 17:50:00,2,10290,0,0.00,2,2,0,2,9669,11060,447,10199,0,0,0,0,0.00,0.00,0.00,0.00
2014-05-05 18:00:00,2,9784,0,0.00,2,2,0,2,8826,10642,456,9782,0,0,0,0,0.00,0.00,0.00,0.00
2014-05-05 18:10:00,2,10526,0,0.00,2,2,0,2,9588,11243,492,10596,0,0,0,0,0.00,0.00,0.00,0.00
2014-05-05 18:20:00,2,11705,0,0.00,2,2,0,2,10577,12758,598,11858,0,0,0,0,0.00,0.00,0.00,0.00
2014-05-05 18:30:00,2,11216,0,0.00,2,2,0,2,10373,12052,500,11137,0,0,0,0,0.00,0.00,0.00,0.00
2014-05-05 18:40:00,2,11258,0,0.00,2,2,0,2,10340,12255,578,11282,0,0,0,0,0.00,0.00,0.00,0.00
2014-05-05 18:50:00,2,11026,0,0.00,2,2,0,2,10151,11594,419,11100,0,0,0,0,0.00,0.00,0.00,0.00
2014-05-05 19:00:00,2,11475,0,0.00,2,2,0,2,10950,12388,439,11234,0,0,0,0,0.00,0.00,0.00,0.00
2014-05-05 19:10:00,2,12086,0,0.00,2,2,0,2,11304,13765,651,11994,0,0,0,0,0.00,0.00,0.00,0.00
2014-05-05 19:20:00,2,11818,0,0.00,2,2,0,2,11099,12800,542,11754,0,0,0,0,0.00,0.00,0.00,0.00
2014-05-05 19:30:00,2,12008,0,0.00,2,2,0,2,10903,12976,539,11986,0,0,0,0,0.00,0.00,0.00,0.00
2014-05-05 19:40:00,2,12366,0,0.00,2,2,0,2,10947,13249,693,12524,0,0,0,0,0.00,0.00,0.00,0.00
2014-05-05 19:50:00,2,12587,0,0.00,2,2,0,2,11268,14883,924,12549,0,0,0,0,0.00,0.00,0.00,0.00
2014-05-05 20:00:00,2,13006,0,0.00,2,2,0,2,10396,14988,1458,13358,0,0,0,0,0.00,0.00,0.00,0.00
2014-05-05 20:10:00,2,12933,0,0.00,2,2,0,2,10943,16272,1480,13190,0,0,0,0,0.00,0.00,0.00,0.00
2014-05-05 20:20:00,2,12734,0,0.00,2,2,0,2,11023,17680,1844,12338,0,0,0,0,0.00,0.00,0.00,0.00
2014-05-05 20:30:00,2,12291,0,0.00,2,2,0,2,11195,13142,652,12196,0,0,0,0,0.00,0.00,0.00,0.00
2014-05-05 20:40:00,2,14648,0,0.00,2,2,0,2,11551,19758,2290,13848,0,0,0,0,0.00,0.00,0.00,0.00
2014-05-05 20:50:00,2,13670,0,0.00,2,2,0,2,11606,15746,1378,13208,0,0,0,0,0.00,0.00,0.00,0.00
2014-05-05 21:00:00,2,14393,0,0.00,2,2,0,2,11649,16602,1619,14751,0,0,0,0,0.00,0.00,0.00,0.00
2014-05-05 21:10:00,2,17971,0,0.00,2,2,0,2,14739,22883,2812,17112,0,0,0,0,0.00,0.00,0.00,0.00
2014-05-05 21:20:00,2,15244,0,0.00,2,2,0,2,12257,17834,1433,15048,0,0,0,0,0.00,0.00,0.00,0.00
2014-05-05 21:30:00,2,16453,0,0.00,2,2,0,2,12021,23374,3053,16792,0,0,0,0,0.00,0.00,0.00,0.00
2014-05-05 21:40:00,2,17996,0,0.00,2,2,0,2,14070,24189,2910,18448,0,0,0,0,0.00,0.00,0.00,0.00
2014-05-05 21:50:00,2,19570,0,0.00,2,2,0,2,15137,22832,2528,19340,0,0,0,0,0.00,0.00,0.00,0.00
2014-05-05 22:00:00,2,16974,0,0.00,2,2,0,2,11722,23950,3013,16418,0,0,0,0,0.00,0.00,0.00,0.00
2014-05-05 22:10:00,2,18574,0,0.00,2,2,0,2,13611,29732,4506,17913,0,0,0,0,0.00,0.00,0.00,0.00
2014-05-05 22:20:00,2,17732,0,0.00,2,2,0,2,12307,23694,3577,17696,0,0,0,0,0.00,0.00,0.00,0.00
2014-05-05 22:30:00,2,16998,0,0.00,2,2,0,2,12288,21372,2828,17084,0,0,0,0,0.00,0.00,0.00,0.00
2014-05-05 22:40:00,2,18314,0,0.00,2,2,0,2,11473,26983,4993,18164,0,0,0,0,0.00,0.00,0.00,0.00
2014-05-05 22:50:00,2,16413,0,0.00,2,2,0,2,10766,27951,5159,14440,0,0,0,0,0.00,0.00,0.00,0.00
2014-05-05 23:00:00,2,15482,0,0.00,2,2,0,2,12237,21462,2859,15048,0,0,0,0,0.00,0.00,0.00,0.00
2014-05-05 23:10:00,2,13177,0,0.00,2,2,0,2,9093,18608,2468,12576,0,0,0,0,0.00,0.00,0.00,0.00
2014-05-05 23:20:00,2,16490,0,0.00,2,2,0,2,13775,23007,2926,15178,0,0,0,0,0.00,0.00,0.00,0.00
2014-05-05 23:30:00,2,13738,0,0.00,2,2,0,2,9981,16351,2081,14173,0,0,0,0,0.00,0.00,0.00,0.00
2014-05-05 23:40:00,2,12420,0,0.00,2,2,0,2,10660,16161,1893,11514,0,0,0,0,0.00,0.00,0.00,0.00
2014-05-05 23:50:00,2,14525,0,0.00,2,2,0,2,10935,26205,4335,13908,0,0,0,0,0.00,0.00,0.00,0.00
